Tracking 29892 objects as of 21-Nov-2024
HD Live streaming from Space Station
objects crossing your sky now

STARLINK-31685

Track STARLINK-31685 now!
10-day predictions
STARLINK-31685 is classified as:


NORAD ID: 59578
Int'l Code: 2024-076Q
Perigee: 450.3 km
Apogee: 452.1 km
Inclination: 43.0 °
Period: 93.5 minutes
Semi major axis: 6822 km
RCS: Unknown
Launch date: April 23, 2024
Source: United States (US)
Launch site: AIR FORCE EASTERN TEST RANGE (AFETR)
Your satellite tracking list
Your tracking list is empty




NASA's NSSDC Master Catalog

Two Line Element Set (TLE):
1 59578U 24076Q   24325.93998927  .00001028  00000-0  31864-4 0  9992
2 59578  43.0025 178.7907 0001282 293.3777  66.6944 15.40698541 33880
Source of the keplerian elements: AFSPC